<?xml version='1.0' encoding='UTF-8'?>
<gpx xmlns="http://www.topografix.com/GPX/1/1" creator="www.balnam.be" version="1.1" xmlns:xsi="http://www.w3.org/2001/XMLSchema-instance" xsi:schemaLocation="http://www.topografix.com/GPX/1/1 http://www.topografix.com/GPX/1/1/gpx.xsd">
<trk>
<name>hbhlt17</name>
<cmt>r</cmt>
<desc>Leval-Trahegnies Chemin n°17 Rue de l'agasse / Chemin de Warimez</desc>
<link href="https://chemins.be/levaltrahegnies/chemin/17"/><trkseg>
<trkpt lat="50.422004" lon="4.233835"><time>2026-05-02T20:37:45Z</time></trkpt>
<trkpt lat="50.421979" lon="4.235538"><time>2026-05-02T20:47:45Z</time></trkpt>
</trkseg></trk>
<trk>
<name>hbhlt17</name>
<cmt>v</cmt>
<desc>Leval-Trahegnies Chemin n°17 Rue de l'agasse / Chemin de Warimez</desc>
<link href="https://chemins.be/levaltrahegnies/chemin/17"/><trkseg>
<trkpt lat="50.421979" lon="4.235538"><time>2026-05-02T20:47:45Z</time></trkpt>
<trkpt lat="50.422120" lon="4.241237"><time>2026-05-02T20:57:45Z</time></trkpt>
<trkpt lat="50.422778" lon="4.242966"><time>2026-05-02T21:07:45Z</time></trkpt>
<trkpt lat="50.422455" lon="4.243446"><time>2026-05-02T21:17:45Z</time></trkpt>
<trkpt lat="50.423252" lon="4.248650"><time>2026-05-02T21:27:45Z</time></trkpt>
<trkpt lat="50.423514" lon="4.252152"><time>2026-05-02T21:37:45Z</time></trkpt>
</trkseg>
</trk>
<trk>
<name>hbhlt19</name>
<cmt>r</cmt>
<desc>Leval-Trahegnies Chemin n°19 Rue des Moulins</desc>
<link href="https://chemins.be/levaltrahegnies/chemin/19"/><trkseg>
<trkpt lat="50.421794" lon="4.231007"><time>2026-05-02T20:37:45Z</time></trkpt>
<trkpt lat="50.422111" lon="4.232920"><time>2026-05-02T20:47:45Z</time></trkpt>
</trkseg>
</trk>
<trk>
<name>hbhlt20</name>
<cmt>v</cmt>
<desc>Leval-Trahegnies Chemin n°20 </desc>
<link href="https://chemins.be/levaltrahegnies/chemin/20"/><trkseg>
<trkpt lat="50.427619" lon="4.216326"><time>2026-05-02T20:37:45Z</time></trkpt>
<trkpt lat="50.427698" lon="4.214538"><time>2026-05-02T20:47:45Z</time></trkpt>
</trkseg></trk>
<trk>
<name>hbhlt20</name>
<cmt>d</cmt>
<desc>Leval-Trahegnies Chemin n°20 </desc>
<link href="https://chemins.be/levaltrahegnies/chemin/20"/><trkseg>
<trkpt lat="50.427698" lon="4.214538"><time>2026-05-02T20:47:45Z</time></trkpt>
<trkpt lat="50.428118" lon="4.212397"><time>2026-05-02T20:57:45Z</time></trkpt>
</trkseg></trk>
<trk>
<name>hbhlt20</name>
<cmt>b</cmt>
<desc>Leval-Trahegnies Chemin n°20 </desc>
<link href="https://chemins.be/levaltrahegnies/chemin/20"/><trkseg>
<trkpt lat="50.428118" lon="4.212397"><time>2026-05-02T20:57:45Z</time></trkpt>
<trkpt lat="50.428162" lon="4.212088"><time>2026-05-02T21:07:45Z</time></trkpt>
</trkseg>
</trk>
<trk>
<name>hbhlt24</name>
<cmt>v</cmt>
<desc>Leval-Trahegnies Chemin n°24 </desc>
<link href="https://chemins.be/levaltrahegnies/chemin/24"/><trkseg>
<trkpt lat="50.419144" lon="4.232535"><time>2026-05-02T20:37:45Z</time></trkpt>
<trkpt lat="50.420995" lon="4.232234"><time>2026-05-02T20:47:45Z</time></trkpt>
<trkpt lat="50.421894" lon="4.232246"><time>2026-05-02T20:57:45Z</time></trkpt>
</trkseg>
</trk>
<trk>
<name>hbhlt25</name>
<cmt>q</cmt>
<desc>Leval-Trahegnies Chemin n°25 </desc>
<link href="https://chemins.be/levaltrahegnies/chemin/25"/><trkseg>
<trkpt lat="50.413363" lon="4.218088"><time>2026-05-02T20:37:45Z</time></trkpt>
<trkpt lat="50.413507" lon="4.218523"><time>2026-05-02T20:47:45Z</time></trkpt>
<trkpt lat="50.414335" lon="4.218873"><time>2026-05-02T20:57:45Z</time></trkpt>
</trkseg>
</trk>
<trk>
<name>hbhlt28</name>
<cmt>v</cmt>
<desc>Leval-Trahegnies Chemin n°28 Impasse du Caporal</desc>
<link href="https://chemins.be/levaltrahegnies/chemin/28"/><trkseg>
<trkpt lat="50.424391" lon="4.222964"><time>2026-05-02T20:37:45Z</time></trkpt>
<trkpt lat="50.423933" lon="4.223416"><time>2026-05-02T20:47:45Z</time></trkpt>
</trkseg>
</trk>
<trk>
<name>hbhlt29</name>
<cmt>v</cmt>
<desc>Leval-Trahegnies Chemin n°29 </desc>
<link href="https://chemins.be/levaltrahegnies/chemin/29"/><trkseg>
<trkpt lat="50.396957" lon="4.238555"><time>2026-05-02T20:37:45Z</time></trkpt>
<trkpt lat="50.396773" lon="4.233438"><time>2026-05-02T20:47:45Z</time></trkpt>
</trkseg>
</trk>
<trk>
<name>hbhlt3</name>
<cmt>r</cmt>
<desc>Leval-Trahegnies Chemin n°3 Rue Clément Brédas / Rue de Namur</desc>
<link href="https://chemins.be/levaltrahegnies/chemin/3"/><trkseg>
<trkpt lat="50.419576" lon="4.211525"><time>2026-05-02T20:37:45Z</time></trkpt>
<trkpt lat="50.419935" lon="4.211144"><time>2026-05-02T20:47:45Z</time></trkpt>
<trkpt lat="50.422685" lon="4.210150"><time>2026-05-02T20:57:45Z</time></trkpt>
</trkseg></trk>
<trk>
<name>hbhlt3</name>
<cmt>v</cmt>
<desc>Leval-Trahegnies Chemin n°3 Rue Clément Brédas / Rue de Namur</desc>
<link href="https://chemins.be/levaltrahegnies/chemin/3"/><trkseg>
<trkpt lat="50.422685" lon="4.210150"><time>2026-05-02T20:57:45Z</time></trkpt>
<trkpt lat="50.426790" lon="4.207898"><time>2026-05-02T21:07:45Z</time></trkpt>
</trkseg>
</trk>
<trk>
<name>hbhlt32</name>
<cmt>v</cmt>
<desc>Leval-Trahegnies Sentier n°32 Rue d'Haine</desc>
<link href="https://chemins.be/levaltrahegnies/sentier/32"/><trkseg>
<trkpt lat="50.425336" lon="4.223341"><time>2026-05-02T20:37:45Z</time></trkpt>
<trkpt lat="50.425988" lon="4.222076"><time>2026-05-02T20:47:45Z</time></trkpt>
<trkpt lat="50.426814" lon="4.221715"><time>2026-05-02T20:57:45Z</time></trkpt>
<trkpt lat="50.426905" lon="4.221690"><time>2026-05-02T21:07:45Z</time></trkpt>
</trkseg></trk>
<trk>
<name>hbhlt32</name>
<cmt>r</cmt>
<desc>Leval-Trahegnies Sentier n°32 Rue d'Haine</desc>
<link href="https://chemins.be/levaltrahegnies/sentier/32"/><trkseg>
<trkpt lat="50.426905" lon="4.221690"><time>2026-05-02T21:07:45Z</time></trkpt>
<trkpt lat="50.429687" lon="4.221159"><time>2026-05-02T21:17:45Z</time></trkpt>
<trkpt lat="50.431580" lon="4.220424"><time>2026-05-02T21:27:45Z</time></trkpt>
<trkpt lat="50.433651" lon="4.219127"><time>2026-05-02T21:37:45Z</time></trkpt>
<trkpt lat="50.434396" lon="4.218353"><time>2026-05-02T21:47:45Z</time></trkpt>
<trkpt lat="50.437085" lon="4.215701"><time>2026-05-02T21:57:45Z</time></trkpt>
</trkseg></trk>
<trk>
<name>hbhlt32</name>
<cmt>d</cmt>
<desc>Leval-Trahegnies Sentier n°32 Rue d'Haine</desc>
<link href="https://chemins.be/levaltrahegnies/sentier/32"/><trkseg>
<trkpt lat="50.437085" lon="4.215701"><time>2026-05-02T21:57:45Z</time></trkpt>
<trkpt lat="50.437566" lon="4.215188"><time>2026-05-02T22:07:45Z</time></trkpt>
</trkseg></trk>
<trk>
<name>hbhlt32</name>
<cmt>s</cmt>
<desc>Leval-Trahegnies Sentier n°32 Rue d'Haine</desc>
<link href="https://chemins.be/levaltrahegnies/sentier/32"/><trkseg>
<trkpt lat="50.437566" lon="4.215188"><time>2026-05-02T22:07:45Z</time></trkpt>
<trkpt lat="50.438995" lon="4.213504"><time>2026-05-02T22:17:45Z</time></trkpt>
</trkseg>
</trk>
<trk>
<name>hbhlt33</name>
<cmt>q</cmt>
<desc>Leval-Trahegnies Sentier n°33 </desc>
<link href="https://chemins.be/levaltrahegnies/sentier/33"/><trkseg>
<trkpt lat="50.429769" lon="4.223764"><time>2026-05-02T20:37:45Z</time></trkpt>
<trkpt lat="50.427168" lon="4.221816"><time>2026-05-02T20:47:45Z</time></trkpt>
</trkseg>
</trk>
<trk>
<name>hbhlt34</name>
<cmt>q</cmt>
<desc>Leval-Trahegnies Sentier n°34 </desc>
<link href="https://chemins.be/levaltrahegnies/sentier/34"/><trkseg>
<trkpt lat="50.427960" lon="4.209748"><time>2026-05-02T20:37:45Z</time></trkpt>
<trkpt lat="50.428219" lon="4.209224"><time>2026-05-02T20:47:45Z</time></trkpt>
</trkseg></trk>
<trk>
<name>hbhlt34</name>
<cmt>s</cmt>
<desc>Leval-Trahegnies Sentier n°34 </desc>
<link href="https://chemins.be/levaltrahegnies/sentier/34"/><trkseg>
<trkpt lat="50.428219" lon="4.209224"><time>2026-05-02T20:47:45Z</time></trkpt>
<trkpt lat="50.428281" lon="4.209083"><time>2026-05-02T20:57:45Z</time></trkpt>
<trkpt lat="50.428726" lon="4.206637"><time>2026-05-02T21:07:45Z</time></trkpt>
</trkseg>
</trk>
<trk>
<name>hbhlt35</name>
<cmt>v</cmt>
<desc>Leval-Trahegnies Sentier n°35 </desc>
<link href="https://chemins.be/levaltrahegnies/sentier/35"/><trkseg>
<trkpt lat="50.425828" lon="4.221102"><time>2026-05-02T20:37:45Z</time></trkpt>
<trkpt lat="50.425997" lon="4.222033"><time>2026-05-02T20:47:45Z</time></trkpt>
</trkseg>
</trk>
<trk>
<name>hbhlt36</name>
<cmt>s</cmt>
<desc>Leval-Trahegnies Sentier n°36 </desc>
<link href="https://chemins.be/levaltrahegnies/sentier/36"/><trkseg>
<trkpt lat="50.426903" lon="4.225546"><time>2026-05-02T20:37:45Z</time></trkpt>
<trkpt lat="50.426850" lon="4.226546"><time>2026-05-02T20:47:45Z</time></trkpt>
<trkpt lat="50.426689" lon="4.226757"><time>2026-05-02T20:57:45Z</time></trkpt>
</trkseg>
</trk>
<trk>
<name>hbhlt37</name>
<cmt>r</cmt>
<desc>Leval-Trahegnies Sentier n°37 Rue de l'église / Rue de l'Eglise / Rue de l'Église</desc>
<link href="https://chemins.be/levaltrahegnies/sentier/37"/><trkseg>
<trkpt lat="50.425310" lon="4.224369"><time>2026-05-02T20:37:45Z</time></trkpt>
<trkpt lat="50.425599" lon="4.225001"><time>2026-05-02T20:47:45Z</time></trkpt>
</trkseg></trk>
<trk>
<name>hbhlt37</name>
<cmt>v</cmt>
<desc>Leval-Trahegnies Sentier n°37 Rue de l'église / Rue de l'Eglise / Rue de l'Église</desc>
<link href="https://chemins.be/levaltrahegnies/sentier/37"/><trkseg>
<trkpt lat="50.425599" lon="4.225001"><time>2026-05-02T20:47:45Z</time></trkpt>
<trkpt lat="50.425824" lon="4.225113"><time>2026-05-02T20:57:45Z</time></trkpt>
</trkseg></trk>
<trk>
<name>hbhlt37</name>
<cmt>r</cmt>
<desc>Leval-Trahegnies Sentier n°37 Rue de l'église / Rue de l'Eglise / Rue de l'Église</desc>
<link href="https://chemins.be/levaltrahegnies/sentier/37"/><trkseg>
<trkpt lat="50.425824" lon="4.225113"><time>2026-05-02T20:57:45Z</time></trkpt>
<trkpt lat="50.426211" lon="4.225745"><time>2026-05-02T21:07:45Z</time></trkpt>
<trkpt lat="50.426607" lon="4.226560"><time>2026-05-02T21:17:45Z</time></trkpt>
</trkseg></trk>
<trk>
<name>hbhlt37</name>
<cmt>v</cmt>
<desc>Leval-Trahegnies Sentier n°37 Rue de l'église / Rue de l'Eglise / Rue de l'Église</desc>
<link href="https://chemins.be/levaltrahegnies/sentier/37"/><trkseg>
<trkpt lat="50.426607" lon="4.226560"><time>2026-05-02T21:17:45Z</time></trkpt>
<trkpt lat="50.427095" lon="4.227980"><time>2026-05-02T21:27:45Z</time></trkpt>
</trkseg>
</trk>
<trk>
<name>hbhlt38</name>
<cmt>q</cmt>
<desc>Leval-Trahegnies Sentier n°38 </desc>
<link href="https://chemins.be/levaltrahegnies/sentier/38"/><trkseg>
<trkpt lat="50.424691" lon="4.225215"><time>2026-05-02T20:37:45Z</time></trkpt>
<trkpt lat="50.425241" lon="4.226367"><time>2026-05-02T20:47:45Z</time></trkpt>
<trkpt lat="50.425950" lon="4.225493"><time>2026-05-02T20:57:45Z</time></trkpt>
</trkseg>
</trk>
<trk>
<name>hbhlt39</name>
<cmt>q</cmt>
<desc>Leval-Trahegnies Sentier n°39 </desc>
<link href="https://chemins.be/levaltrahegnies/sentier/39"/><trkseg>
<trkpt lat="50.425357" lon="4.226283"><time>2026-05-02T20:37:45Z</time></trkpt>
<trkpt lat="50.426520" lon="4.228798"><time>2026-05-02T20:47:45Z</time></trkpt>
</trkseg>
</trk>
<trk>
<name>hbhlt40</name>
<cmt>v</cmt>
<desc>Leval-Trahegnies Sentier n°40 </desc>
<link href="https://chemins.be/levaltrahegnies/sentier/40"/><trkseg>
<trkpt lat="50.423435" lon="4.227147"><time>2026-05-02T20:37:45Z</time></trkpt>
<trkpt lat="50.424048" lon="4.229101"><time>2026-05-02T20:47:45Z</time></trkpt>
</trkseg></trk>
<trk>
<name>hbhlt40</name>
<cmt>q</cmt>
<desc>Leval-Trahegnies Sentier n°40 </desc>
<link href="https://chemins.be/levaltrahegnies/sentier/40"/><trkseg>
<trkpt lat="50.424048" lon="4.229101"><time>2026-05-02T20:47:45Z</time></trkpt>
<trkpt lat="50.425533" lon="4.229969"><time>2026-05-02T20:57:45Z</time></trkpt>
</trkseg>
</trk>
<trk>
<name>hbhlt41</name>
<cmt>q</cmt>
<desc>Leval-Trahegnies Sentier n°41 </desc>
<link href="https://chemins.be/levaltrahegnies/sentier/41"/><trkseg>
<trkpt lat="50.422359" lon="4.229683"><time>2026-05-02T20:37:45Z</time></trkpt>
<trkpt lat="50.422422" lon="4.229795"><time>2026-05-02T20:47:45Z</time></trkpt>
<trkpt lat="50.423339" lon="4.229751"><time>2026-05-02T20:57:45Z</time></trkpt>
<trkpt lat="50.423895" lon="4.229116"><time>2026-05-02T21:07:45Z</time></trkpt>
<trkpt lat="50.424111" lon="4.229017"><time>2026-05-02T21:17:45Z</time></trkpt>
<trkpt lat="50.425655" lon="4.226943"><time>2026-05-02T21:27:45Z</time></trkpt>
</trkseg>
</trk>
<trk>
<name>hbhlt43</name>
<cmt>q</cmt>
<desc>Leval-Trahegnies Sentier n°43 </desc>
<link href="https://chemins.be/levaltrahegnies/sentier/43"/><trkseg>
<trkpt lat="50.424718" lon="4.225032"><time>2026-05-02T20:37:45Z</time></trkpt>
<trkpt lat="50.424429" lon="4.224484"><time>2026-05-02T20:47:45Z</time></trkpt>
<trkpt lat="50.424474" lon="4.224217"><time>2026-05-02T20:57:45Z</time></trkpt>
<trkpt lat="50.424366" lon="4.223964"><time>2026-05-02T21:07:45Z</time></trkpt>
<trkpt lat="50.424410" lon="4.223189"><time>2026-05-02T21:17:45Z</time></trkpt>
<trkpt lat="50.424437" lon="4.223119"><time>2026-05-02T21:27:45Z</time></trkpt>
</trkseg>
</trk>
<trk>
<name>hbhlt44</name>
<cmt>v</cmt>
<desc>Leval-Trahegnies Sentier n°44 Impasse Philipette</desc>
<link href="https://chemins.be/levaltrahegnies/sentier/44"/><trkseg>
<trkpt lat="50.425084" lon="4.223216"><time>2026-05-02T20:37:45Z</time></trkpt>
<trkpt lat="50.424680" lon="4.223498"><time>2026-05-02T20:47:45Z</time></trkpt>
<trkpt lat="50.424536" lon="4.223710"><time>2026-05-02T20:57:45Z</time></trkpt>
<trkpt lat="50.424294" lon="4.224006"><time>2026-05-02T21:07:45Z</time></trkpt>
</trkseg>
</trk>
<trk>
<name>hbhlt45</name>
<cmt>r</cmt>
<desc>Leval-Trahegnies Sentier n°45 Rue des Quéniaux</desc>
<link href="https://chemins.be/levaltrahegnies/sentier/45"/><trkseg>
<trkpt lat="50.418291" lon="4.229610"><time>2026-05-02T20:37:45Z</time></trkpt>
<trkpt lat="50.419214" lon="4.230293"><time>2026-05-02T20:47:45Z</time></trkpt>
<trkpt lat="50.419398" lon="4.230891"><time>2026-05-02T20:57:45Z</time></trkpt>
<trkpt lat="50.420744" lon="4.230494"><time>2026-05-02T21:07:45Z</time></trkpt>
<trkpt lat="50.421141" lon="4.230358"><time>2026-05-02T21:17:45Z</time></trkpt>
<trkpt lat="50.421688" lon="4.230125"><time>2026-05-02T21:27:45Z</time></trkpt>
<trkpt lat="50.421863" lon="4.230401"><time>2026-05-02T21:37:45Z</time></trkpt>
<trkpt lat="50.421832" lon="4.230640"><time>2026-05-02T21:47:45Z</time></trkpt>
</trkseg></trk>
<trk>
<name>hbhlt45</name>
<cmt>q</cmt>
<desc>Leval-Trahegnies Sentier n°45 Rue des Quéniaux</desc>
<link href="https://chemins.be/levaltrahegnies/sentier/45"/><trkseg>
<trkpt lat="50.421832" lon="4.230640"><time>2026-05-02T21:47:45Z</time></trkpt>
<trkpt lat="50.422062" lon="4.230376"><time>2026-05-02T21:57:45Z</time></trkpt>
<trkpt lat="50.422470" lon="4.230261"><time>2026-05-02T22:07:45Z</time></trkpt>
<trkpt lat="50.423646" lon="4.231302"><time>2026-05-02T22:17:45Z</time></trkpt>
<trkpt lat="50.424693" lon="4.233466"><time>2026-05-02T22:27:45Z</time></trkpt>
<trkpt lat="50.424948" lon="4.232022"><time>2026-05-02T22:37:45Z</time></trkpt>
<trkpt lat="50.425549" lon="4.230105"><time>2026-05-02T22:47:45Z</time></trkpt>
</trkseg>
</trk>
<trk>
<name>hbhlt46</name>
<cmt>q</cmt>
<desc>Leval-Trahegnies Sentier n°46 Rue des Moulins</desc>
<link href="https://chemins.be/levaltrahegnies/sentier/46"/><trkseg>
<trkpt lat="50.423048" lon="4.227275"><time>2026-05-02T20:37:45Z</time></trkpt>
<trkpt lat="50.422502" lon="4.229134"><time>2026-05-02T20:47:45Z</time></trkpt>
</trkseg>
</trk>
<trk>
<name>hbhlt47</name>
<cmt>v</cmt>
<desc>Leval-Trahegnies Sentier n°47 Ruelle à Tarins</desc>
<link href="https://chemins.be/levaltrahegnies/sentier/47"/><trkseg>
<trkpt lat="50.419533" lon="4.220390"><time>2026-05-02T20:37:45Z</time></trkpt>
<trkpt lat="50.420320" lon="4.223638"><time>2026-05-02T20:47:45Z</time></trkpt>
</trkseg></trk>
<trk>
<name>hbhlt47</name>
<cmt>r</cmt>
<desc>Leval-Trahegnies Sentier n°47 Ruelle à Tarins</desc>
<link href="https://chemins.be/levaltrahegnies/sentier/47"/><trkseg>
<trkpt lat="50.420320" lon="4.223638"><time>2026-05-02T20:47:45Z</time></trkpt>
<trkpt lat="50.419889" lon="4.224104"><time>2026-05-02T20:57:45Z</time></trkpt>
<trkpt lat="50.419687" lon="4.225681"><time>2026-05-02T21:07:45Z</time></trkpt>
<trkpt lat="50.419811" lon="4.226848"><time>2026-05-02T21:17:45Z</time></trkpt>
</trkseg></trk>
<trk>
<name>hbhlt47</name>
<cmt>q</cmt>
<desc>Leval-Trahegnies Sentier n°47 Ruelle à Tarins</desc>
<link href="https://chemins.be/levaltrahegnies/sentier/47"/><trkseg>
<trkpt lat="50.419811" lon="4.226848"><time>2026-05-02T21:17:45Z</time></trkpt>
<trkpt lat="50.419892" lon="4.227031"><time>2026-05-02T21:27:45Z</time></trkpt>
</trkseg></trk>
<trk>
<name>hbhlt47</name>
<cmt>r</cmt>
<desc>Leval-Trahegnies Sentier n°47 Ruelle à Tarins</desc>
<link href="https://chemins.be/levaltrahegnies/sentier/47"/><trkseg>
<trkpt lat="50.419892" lon="4.227031"><time>2026-05-02T21:27:45Z</time></trkpt>
<trkpt lat="50.419569" lon="4.227454"><time>2026-05-02T21:37:45Z</time></trkpt>
</trkseg></trk>
<trk>
<name>hbhlt47</name>
<cmt>v</cmt>
<desc>Leval-Trahegnies Sentier n°47 Ruelle à Tarins</desc>
<link href="https://chemins.be/levaltrahegnies/sentier/47"/><trkseg>
<trkpt lat="50.419569" lon="4.227454"><time>2026-05-02T21:37:45Z</time></trkpt>
<trkpt lat="50.418979" lon="4.230087"><time>2026-05-02T21:47:45Z</time></trkpt>
</trkseg></trk>
<trk>
<name>hbhlt47</name>
<cmt>q</cmt>
<desc>Leval-Trahegnies Sentier n°47 Ruelle à Tarins</desc>
<link href="https://chemins.be/levaltrahegnies/sentier/47"/><trkseg>
<trkpt lat="50.418979" lon="4.230087"><time>2026-05-02T21:47:45Z</time></trkpt>
<trkpt lat="50.418514" lon="4.232593"><time>2026-05-02T21:57:45Z</time></trkpt>
</trkseg>
</trk>
<trk>
<name>hbhlt48</name>
<cmt>v</cmt>
<desc>Leval-Trahegnies Sentier n°48 Ruelle des Aunes</desc>
<link href="https://chemins.be/levaltrahegnies/sentier/48"/><trkseg>
<trkpt lat="50.419623" lon="4.227608"><time>2026-05-02T20:37:45Z</time></trkpt>
<trkpt lat="50.420353" lon="4.228802"><time>2026-05-02T20:47:45Z</time></trkpt>
<trkpt lat="50.420777" lon="4.230377"><time>2026-05-02T20:57:45Z</time></trkpt>
</trkseg>
</trk>
<trk>
<name>hbhlt49</name>
<cmt>q</cmt>
<desc>Leval-Trahegnies Sentier n°49 </desc>
<link href="https://chemins.be/levaltrahegnies/sentier/49"/><trkseg>
<trkpt lat="50.417247" lon="4.218159"><time>2026-05-02T20:37:45Z</time></trkpt>
<trkpt lat="50.417243" lon="4.218370"><time>2026-05-02T20:47:45Z</time></trkpt>
<trkpt lat="50.417878" lon="4.218892"><time>2026-05-02T20:57:45Z</time></trkpt>
<trkpt lat="50.417992" lon="4.218792"><time>2026-05-02T21:07:45Z</time></trkpt>
</trkseg>
</trk>
<trk>
<name>hbhlt50</name>
<cmt>r</cmt>
<desc>Leval-Trahegnies Sentier n°50 Rue de la Case / Ruelle du Noyer</desc>
<link href="https://chemins.be/levaltrahegnies/sentier/50"/><trkseg>
<trkpt lat="50.415886" lon="4.219943"><time>2026-05-02T20:37:45Z</time></trkpt>
<trkpt lat="50.416843" lon="4.221960"><time>2026-05-02T20:47:45Z</time></trkpt>
<trkpt lat="50.417153" lon="4.221817"><time>2026-05-02T20:57:45Z</time></trkpt>
<trkpt lat="50.417339" lon="4.222453"><time>2026-05-02T21:07:45Z</time></trkpt>
</trkseg></trk>
<trk>
<name>hbhlt50</name>
<cmt>q</cmt>
<desc>Leval-Trahegnies Sentier n°50 Rue de la Case / Ruelle du Noyer</desc>
<link href="https://chemins.be/levaltrahegnies/sentier/50"/><trkseg>
<trkpt lat="50.417339" lon="4.222453"><time>2026-05-02T21:07:45Z</time></trkpt>
<trkpt lat="50.418078" lon="4.221788"><time>2026-05-02T21:17:45Z</time></trkpt>
<trkpt lat="50.417991" lon="4.221366"><time>2026-05-02T21:27:45Z</time></trkpt>
<trkpt lat="50.418160" lon="4.221244"><time>2026-05-02T21:37:45Z</time></trkpt>
</trkseg></trk>
<trk>
<name>hbhlt50</name>
<cmt>r</cmt>
<desc>Leval-Trahegnies Sentier n°50 Rue de la Case / Ruelle du Noyer</desc>
<link href="https://chemins.be/levaltrahegnies/sentier/50"/><trkseg>
<trkpt lat="50.418160" lon="4.221244"><time>2026-05-02T21:37:45Z</time></trkpt>
<trkpt lat="50.419459" lon="4.220265"><time>2026-05-02T21:47:45Z</time></trkpt>
</trkseg>
</trk>
<trk>
<name>hbhlt52</name>
<cmt>r</cmt>
<desc>Leval-Trahegnies Sentier n°52 Rue aux Chats</desc>
<link href="https://chemins.be/levaltrahegnies/sentier/52"/><trkseg>
<trkpt lat="50.419837" lon="4.224141"><time>2026-05-02T20:37:45Z</time></trkpt>
<trkpt lat="50.418625" lon="4.224320"><time>2026-05-02T20:47:45Z</time></trkpt>
<trkpt lat="50.418297" lon="4.224828"><time>2026-05-02T20:57:45Z</time></trkpt>
</trkseg>
</trk>
<trk>
<name>hbhlt53</name>
<cmt>v</cmt>
<desc>Leval-Trahegnies Sentier n°53 Ruelle du Noyer</desc>
<link href="https://chemins.be/levaltrahegnies/sentier/53"/><trkseg>
<trkpt lat="50.419452" lon="4.227496"><time>2026-05-02T20:37:45Z</time></trkpt>
<trkpt lat="50.419182" lon="4.226977"><time>2026-05-02T20:47:45Z</time></trkpt>
<trkpt lat="50.419163" lon="4.226287"><time>2026-05-02T20:57:45Z</time></trkpt>
<trkpt lat="50.418839" lon="4.226035"><time>2026-05-02T21:07:45Z</time></trkpt>
</trkseg></trk>
<trk>
<name>hbhlt53</name>
<cmt>r</cmt>
<desc>Leval-Trahegnies Sentier n°53 Ruelle du Noyer</desc>
<link href="https://chemins.be/levaltrahegnies/sentier/53"/><trkseg>
<trkpt lat="50.418839" lon="4.226035"><time>2026-05-02T21:07:45Z</time></trkpt>
<trkpt lat="50.418767" lon="4.225430"><time>2026-05-02T21:17:45Z</time></trkpt>
<trkpt lat="50.418301" lon="4.224814"><time>2026-05-02T21:27:45Z</time></trkpt>
<trkpt lat="50.417330" lon="4.222460"><time>2026-05-02T21:37:45Z</time></trkpt>
</trkseg>
</trk>
<trk>
<name>hbhlt54</name>
<cmt>v</cmt>
<desc>Leval-Trahegnies Sentier n°54 </desc>
<link href="https://chemins.be/levaltrahegnies/sentier/54"/><trkseg>
<trkpt lat="50.416507" lon="4.230150"><time>2026-05-02T20:37:45Z</time></trkpt>
<trkpt lat="50.418107" lon="4.229963"><time>2026-05-02T20:47:45Z</time></trkpt>
</trkseg>
</trk>
<trk>
<name>hbhlt55</name>
<cmt>d</cmt>
<desc>Leval-Trahegnies Sentier n°55 </desc>
<link href="https://chemins.be/levaltrahegnies/sentier/55"/><trkseg>
<trkpt lat="50.419447" lon="4.230859"><time>2026-05-02T20:37:45Z</time></trkpt>
<trkpt lat="50.420311" lon="4.231378"><time>2026-05-02T20:47:45Z</time></trkpt>
<trkpt lat="50.420977" lon="4.232233"><time>2026-05-02T20:57:45Z</time></trkpt>
<trkpt lat="50.421752" lon="4.230988"><time>2026-05-02T21:07:45Z</time></trkpt>
</trkseg>
</trk>
<trk>
<name>hbhlt56</name>
<cmt>q</cmt>
<desc>Leval-Trahegnies Sentier n°56 </desc>
<link href="https://chemins.be/levaltrahegnies/sentier/56"/><trkseg>
<trkpt lat="50.416143" lon="4.231812"><time>2026-05-02T20:37:45Z</time></trkpt>
<trkpt lat="50.418132" lon="4.231165"><time>2026-05-02T20:47:45Z</time></trkpt>
</trkseg>
</trk>
<trk>
<name>hbhlt57</name>
<cmt>q</cmt>
<desc>Leval-Trahegnies Sentier n°57 Rue des Boulois / Rue du Bois d'Hamal</desc>
<link href="https://chemins.be/levaltrahegnies/sentier/57"/><trkseg>
<trkpt lat="50.409634" lon="4.237314"><time>2026-05-02T20:37:45Z</time></trkpt>
<trkpt lat="50.411691" lon="4.235665"><time>2026-05-02T20:47:45Z</time></trkpt>
<trkpt lat="50.412291" lon="4.234084"><time>2026-05-02T20:57:45Z</time></trkpt>
</trkseg></trk>
<trk>
<name>hbhlt57</name>
<cmt>r</cmt>
<desc>Leval-Trahegnies Sentier n°57 Rue des Boulois / Rue du Bois d'Hamal</desc>
<link href="https://chemins.be/levaltrahegnies/sentier/57"/><trkseg>
<trkpt lat="50.412291" lon="4.234084"><time>2026-05-02T20:57:45Z</time></trkpt>
<trkpt lat="50.412477" lon="4.234166"><time>2026-05-02T21:07:45Z</time></trkpt>
</trkseg></trk>
<trk>
<name>hbhlt57</name>
<cmt>v</cmt>
<desc>Leval-Trahegnies Sentier n°57 Rue des Boulois / Rue du Bois d'Hamal</desc>
<link href="https://chemins.be/levaltrahegnies/sentier/57"/><trkseg>
<trkpt lat="50.412477" lon="4.234166"><time>2026-05-02T21:07:45Z</time></trkpt>
<trkpt lat="50.412528" lon="4.233918"><time>2026-05-02T21:17:45Z</time></trkpt>
<trkpt lat="50.414082" lon="4.232310"><time>2026-05-02T21:27:45Z</time></trkpt>
</trkseg></trk>
<trk>
<name>hbhlt57</name>
<cmt>r</cmt>
<desc>Leval-Trahegnies Sentier n°57 Rue des Boulois / Rue du Bois d'Hamal</desc>
<link href="https://chemins.be/levaltrahegnies/sentier/57"/><trkseg>
<trkpt lat="50.414082" lon="4.232310"><time>2026-05-02T21:27:45Z</time></trkpt>
<trkpt lat="50.414486" lon="4.231718"><time>2026-05-02T21:37:45Z</time></trkpt>
<trkpt lat="50.415159" lon="4.230745"><time>2026-05-02T21:47:45Z</time></trkpt>
<trkpt lat="50.415878" lon="4.230490"><time>2026-05-02T21:57:45Z</time></trkpt>
</trkseg>
</trk>
<trk>
<name>hbhlt58</name>
<cmt>q</cmt>
<desc>Leval-Trahegnies Sentier n°58 Rue des Boulois</desc>
<link href="https://chemins.be/levaltrahegnies/sentier/58"/><trkseg>
<trkpt lat="50.417047" lon="4.234774"><time>2026-05-02T20:37:45Z</time></trkpt>
<trkpt lat="50.415508" lon="4.235114"><time>2026-05-02T20:47:45Z</time></trkpt>
<trkpt lat="50.415417" lon="4.235032"><time>2026-05-02T20:57:45Z</time></trkpt>
</trkseg>
</trk>
<trk>
<name>hbhlt59</name>
<cmt>v</cmt>
<desc>Leval-Trahegnies Sentier n°59 </desc>
<link href="https://chemins.be/levaltrahegnies/sentier/59"/><trkseg>
<trkpt lat="50.415271" lon="4.226833"><time>2026-05-02T20:37:45Z</time></trkpt>
<trkpt lat="50.416305" lon="4.226619"><time>2026-05-02T20:47:45Z</time></trkpt>
<trkpt lat="50.416440" lon="4.227308"><time>2026-05-02T20:57:45Z</time></trkpt>
</trkseg></trk>
<trk>
<name>hbhlt59</name>
<cmt>q</cmt>
<desc>Leval-Trahegnies Sentier n°59 </desc>
<link href="https://chemins.be/levaltrahegnies/sentier/59"/><trkseg>
<trkpt lat="50.416440" lon="4.227308"><time>2026-05-02T20:57:45Z</time></trkpt>
<trkpt lat="50.416793" lon="4.229066"><time>2026-05-02T21:07:45Z</time></trkpt>
</trkseg>
</trk>
<trk>
<name>hbhlt60</name>
<cmt>v</cmt>
<desc>Leval-Trahegnies Sentier n°60 </desc>
<link href="https://chemins.be/levaltrahegnies/sentier/60"/><trkseg>
<trkpt lat="50.417547" lon="4.228192"><time>2026-05-02T20:37:45Z</time></trkpt>
<trkpt lat="50.417511" lon="4.227868"><time>2026-05-02T20:47:45Z</time></trkpt>
<trkpt lat="50.417097" lon="4.227940"><time>2026-05-02T20:57:45Z</time></trkpt>
<trkpt lat="50.417007" lon="4.227574"><time>2026-05-02T21:07:45Z</time></trkpt>
<trkpt lat="50.416467" lon="4.227168"><time>2026-05-02T21:17:45Z</time></trkpt>
</trkseg>
</trk>
<trk>
<name>hbhlt63</name>
<cmt>v</cmt>
<desc>Leval-Trahegnies Sentier n°63 </desc>
<link href="https://chemins.be/levaltrahegnies/sentier/63"/><trkseg>
<trkpt lat="50.419276" lon="4.219220"><time>2026-05-02T20:37:45Z</time></trkpt>
<trkpt lat="50.418821" lon="4.216309"><time>2026-05-02T20:47:45Z</time></trkpt>
<trkpt lat="50.417985" lon="4.214551"><time>2026-05-02T20:57:45Z</time></trkpt>
</trkseg></trk>
<trk>
<name>hbhlt63</name>
<cmt>q</cmt>
<desc>Leval-Trahegnies Sentier n°63 </desc>
<link href="https://chemins.be/levaltrahegnies/sentier/63"/><trkseg>
<trkpt lat="50.417985" lon="4.214551"><time>2026-05-02T20:57:45Z</time></trkpt>
<trkpt lat="50.417879" lon="4.214678"><time>2026-05-02T21:07:45Z</time></trkpt>
<trkpt lat="50.416407" lon="4.214997"><time>2026-05-02T21:17:45Z</time></trkpt>
</trkseg>
</trk>
<trk>
<name>hbhlt64</name>
<cmt>v</cmt>
<desc>Leval-Trahegnies Sentier n°64 </desc>
<link href="https://chemins.be/levaltrahegnies/sentier/64"/><trkseg>
<trkpt lat="50.411154" lon="4.206544"><time>2026-05-02T20:37:45Z</time></trkpt>
<trkpt lat="50.410176" lon="4.205747"><time>2026-05-02T20:47:45Z</time></trkpt>
<trkpt lat="50.409394" lon="4.204717"><time>2026-05-02T20:57:45Z</time></trkpt>
</trkseg></trk>
<trk>
<name>hbhlt64</name>
<cmt>q</cmt>
<desc>Leval-Trahegnies Sentier n°64 </desc>
<link href="https://chemins.be/levaltrahegnies/sentier/64"/><trkseg>
<trkpt lat="50.409394" lon="4.204717"><time>2026-05-02T20:57:45Z</time></trkpt>
<trkpt lat="50.408633" lon="4.203765"><time>2026-05-02T21:07:45Z</time></trkpt>
</trkseg>
</trk>
<trk>
<name>hbhlt65</name>
<cmt>q</cmt>
<desc>Leval-Trahegnies Sentier n°65 </desc>
<link href="https://chemins.be/levaltrahegnies/sentier/65"/><trkseg>
<trkpt lat="50.417280" lon="4.215627"><time>2026-05-02T20:37:45Z</time></trkpt>
<trkpt lat="50.417358" lon="4.213333"><time>2026-05-02T20:47:45Z</time></trkpt>
</trkseg>
</trk>
<trk>
<name>hbhlt66</name>
<cmt>q</cmt>
<desc>Leval-Trahegnies Sentier n°66 </desc>
<link href="https://chemins.be/levaltrahegnies/sentier/66"/><trkseg>
<trkpt lat="50.415808" lon="4.217503"><time>2026-05-02T20:37:45Z</time></trkpt>
<trkpt lat="50.415113" lon="4.216000"><time>2026-05-02T20:47:45Z</time></trkpt>
<trkpt lat="50.414958" lon="4.214284"><time>2026-05-02T20:57:45Z</time></trkpt>
</trkseg>
</trk>
<trk>
<name>hbhlt67</name>
<cmt>q</cmt>
<desc>Leval-Trahegnies Sentier n°67 </desc>
<link href="https://chemins.be/levaltrahegnies/sentier/67"/><trkseg>
<trkpt lat="50.415984" lon="4.214843"><time>2026-05-02T20:37:45Z</time></trkpt>
<trkpt lat="50.414835" lon="4.216212"><time>2026-05-02T20:47:45Z</time></trkpt>
</trkseg>
</trk>
<trk>
<name>hbhlt68</name>
<cmt>q</cmt>
<desc>Leval-Trahegnies Sentier n°68 </desc>
<link href="https://chemins.be/levaltrahegnies/sentier/68"/><trkseg>
<trkpt lat="50.415492" lon="4.216829"><time>2026-05-02T20:37:45Z</time></trkpt>
<trkpt lat="50.414691" lon="4.216311"><time>2026-05-02T20:47:45Z</time></trkpt>
<trkpt lat="50.414288" lon="4.216931"><time>2026-05-02T20:57:45Z</time></trkpt>
<trkpt lat="50.413874" lon="4.216651"><time>2026-05-02T21:07:45Z</time></trkpt>
</trkseg>
</trk>
<trk>
<name>hbhlt69</name>
<cmt>v</cmt>
<desc>Leval-Trahegnies Sentier n°69 </desc>
<link href="https://chemins.be/levaltrahegnies/sentier/69"/><trkseg>
<trkpt lat="50.414533" lon="4.218661"><time>2026-05-02T20:37:45Z</time></trkpt>
<trkpt lat="50.414217" lon="4.218169"><time>2026-05-02T20:47:45Z</time></trkpt>
</trkseg></trk>
<trk>
<name>hbhlt69</name>
<cmt>q</cmt>
<desc>Leval-Trahegnies Sentier n°69 </desc>
<link href="https://chemins.be/levaltrahegnies/sentier/69"/><trkseg>
<trkpt lat="50.414217" lon="4.218169"><time>2026-05-02T20:47:45Z</time></trkpt>
<trkpt lat="50.413749" lon="4.217313"><time>2026-05-02T20:57:45Z</time></trkpt>
<trkpt lat="50.413882" lon="4.216398"><time>2026-05-02T21:07:45Z</time></trkpt>
<trkpt lat="50.414160" lon="4.215665"><time>2026-05-02T21:17:45Z</time></trkpt>
</trkseg>
</trk>
<trk>
<name>hbhlt7</name>
<cmt>v</cmt>
<desc>Leval-Trahegnies Chemin n°7 Rue d'Anderlues</desc>
<link href="https://chemins.be/levaltrahegnies/chemin/7"/><trkseg>
<trkpt lat="50.411561" lon="4.245129"><time>2026-05-02T20:37:45Z</time></trkpt>
<trkpt lat="50.412627" lon="4.244471"><time>2026-05-02T20:47:45Z</time></trkpt>
<trkpt lat="50.412924" lon="4.244049"><time>2026-05-02T20:57:45Z</time></trkpt>
<trkpt lat="50.413930" lon="4.241526"><time>2026-05-02T21:07:45Z</time></trkpt>
<trkpt lat="50.415941" lon="4.238496"><time>2026-05-02T21:17:45Z</time></trkpt>
<trkpt lat="50.416496" lon="4.236243"><time>2026-05-02T21:27:45Z</time></trkpt>
<trkpt lat="50.417285" lon="4.234721"><time>2026-05-02T21:37:45Z</time></trkpt>
</trkseg>
</trk>
<trk>
<name>hbhlt70</name>
<cmt>v</cmt>
<desc>Leval-Trahegnies Sentier n°70 </desc>
<link href="https://chemins.be/levaltrahegnies/sentier/70"/><trkseg>
<trkpt lat="50.413399" lon="4.218003"><time>2026-05-02T20:37:45Z</time></trkpt>
<trkpt lat="50.414226" lon="4.218141"><time>2026-05-02T20:47:45Z</time></trkpt>
</trkseg>
</trk>
<trk>
<name>hbhlt71</name>
<cmt>r</cmt>
<desc>Leval-Trahegnies Sentier n°71 Rue aux Fleurs</desc>
<link href="https://chemins.be/levaltrahegnies/sentier/71"/><trkseg>
<trkpt lat="50.410895" lon="4.214142"><time>2026-05-02T20:37:45Z</time></trkpt>
<trkpt lat="50.412316" lon="4.214714"><time>2026-05-02T20:47:45Z</time></trkpt>
</trkseg></trk>
<trk>
<name>hbhlt71</name>
<cmt>v</cmt>
<desc>Leval-Trahegnies Sentier n°71 Rue aux Fleurs</desc>
<link href="https://chemins.be/levaltrahegnies/sentier/71"/><trkseg>
<trkpt lat="50.412316" lon="4.214714"><time>2026-05-02T20:47:45Z</time></trkpt>
<trkpt lat="50.412415" lon="4.214939"><time>2026-05-02T20:57:45Z</time></trkpt>
<trkpt lat="50.412658" lon="4.214812"><time>2026-05-02T21:07:45Z</time></trkpt>
<trkpt lat="50.412982" lon="4.215683"><time>2026-05-02T21:17:45Z</time></trkpt>
</trkseg></trk>
<trk>
<name>hbhlt71</name>
<cmt>q</cmt>
<desc>Leval-Trahegnies Sentier n°71 Rue aux Fleurs</desc>
<link href="https://chemins.be/levaltrahegnies/sentier/71"/><trkseg>
<trkpt lat="50.412982" lon="4.215683"><time>2026-05-02T21:17:45Z</time></trkpt>
<trkpt lat="50.413586" lon="4.216638"><time>2026-05-02T21:27:45Z</time></trkpt>
<trkpt lat="50.413632" lon="4.217130"><time>2026-05-02T21:37:45Z</time></trkpt>
<trkpt lat="50.413740" lon="4.217299"><time>2026-05-02T21:47:45Z</time></trkpt>
</trkseg>
</trk>
<trk>
<name>hbhlt73</name>
<cmt>q</cmt>
<desc>Leval-Trahegnies Sentier n°73 </desc>
<link href="https://chemins.be/levaltrahegnies/sentier/73"/><trkseg>
<trkpt lat="50.413673" lon="4.214794"><time>2026-05-02T20:37:45Z</time></trkpt>
<trkpt lat="50.413161" lon="4.214458"><time>2026-05-02T20:47:45Z</time></trkpt>
</trkseg>
</trk>
<trk>
<name>hbhlt75</name>
<cmt>v</cmt>
<desc>Leval-Trahegnies Sentier n°75 </desc>
<link href="https://chemins.be/levaltrahegnies/sentier/75"/><trkseg>
<trkpt lat="50.416292" lon="4.214900"><time>2026-05-02T20:37:45Z</time></trkpt>
<trkpt lat="50.417223" lon="4.213488"><time>2026-05-02T20:47:45Z</time></trkpt>
<trkpt lat="50.417614" lon="4.212397"><time>2026-05-02T20:57:45Z</time></trkpt>
</trkseg></trk>
<trk>
<name>hbhlt75</name>
<cmt>q</cmt>
<desc>Leval-Trahegnies Sentier n°75 </desc>
<link href="https://chemins.be/levaltrahegnies/sentier/75"/><trkseg>
<trkpt lat="50.417614" lon="4.212397"><time>2026-05-02T20:57:45Z</time></trkpt>
<trkpt lat="50.419248" lon="4.208177"><time>2026-05-02T21:07:45Z</time></trkpt>
</trkseg>
</trk>
<trk>
<name>hbhlt76</name>
<cmt>v</cmt>
<desc>Leval-Trahegnies Sentier n°76 Ruelle des Jardinaux / Quartier de la Courte</desc>
<link href="https://chemins.be/levaltrahegnies/sentier/76"/><trkseg>
<trkpt lat="50.413905" lon="4.212852"><time>2026-05-02T20:37:45Z</time></trkpt>
<trkpt lat="50.416741" lon="4.209818"><time>2026-05-02T20:47:45Z</time></trkpt>
</trkseg></trk>
<trk>
<name>hbhlt76</name>
<cmt>q</cmt>
<desc>Leval-Trahegnies Sentier n°76 Ruelle des Jardinaux / Quartier de la Courte</desc>
<link href="https://chemins.be/levaltrahegnies/sentier/76"/><trkseg>
<trkpt lat="50.416741" lon="4.209818"><time>2026-05-02T20:47:45Z</time></trkpt>
<trkpt lat="50.418546" lon="4.208010"><time>2026-05-02T20:57:45Z</time></trkpt>
</trkseg></trk>
<trk>
<name>hbhlt76</name>
<cmt>r</cmt>
<desc>Leval-Trahegnies Sentier n°76 Ruelle des Jardinaux / Quartier de la Courte</desc>
<link href="https://chemins.be/levaltrahegnies/sentier/76"/><trkseg>
<trkpt lat="50.418546" lon="4.208010"><time>2026-05-02T20:57:45Z</time></trkpt>
<trkpt lat="50.419444" lon="4.207276"><time>2026-05-02T21:07:45Z</time></trkpt>
</trkseg>
</trk>
<trk>
<name>hbhlt77</name>
<cmt>v</cmt>
<desc>Leval-Trahegnies Sentier n°77 </desc>
<link href="https://chemins.be/levaltrahegnies/sentier/77"/><trkseg>
<trkpt lat="50.413851" lon="4.212923"><time>2026-05-02T20:37:45Z</time></trkpt>
<trkpt lat="50.413716" lon="4.213148"><time>2026-05-02T20:47:45Z</time></trkpt>
<trkpt lat="50.413752" lon="4.213359"><time>2026-05-02T20:57:45Z</time></trkpt>
<trkpt lat="50.413187" lon="4.214388"><time>2026-05-02T21:07:45Z</time></trkpt>
<trkpt lat="50.412613" lon="4.214826"><time>2026-05-02T21:17:45Z</time></trkpt>
<trkpt lat="50.411481" lon="4.215491"><time>2026-05-02T21:27:45Z</time></trkpt>
</trkseg>
</trk>
<trk>
<name>hbhlt78</name>
<cmt>s</cmt>
<desc>Leval-Trahegnies Sentier n°78 Rue Saint-Martin / Rue Berthe Dubail</desc>
<link href="https://chemins.be/levaltrahegnies/sentier/78"/><trkseg>
<trkpt lat="50.412968" lon="4.217018"><time>2026-05-02T20:37:45Z</time></trkpt>
<trkpt lat="50.413142" lon="4.218105"><time>2026-05-02T20:47:45Z</time></trkpt>
</trkseg></trk>
<trk>
<name>hbhlt78</name>
<cmt>v</cmt>
<desc>Leval-Trahegnies Sentier n°78 Rue Saint-Martin / Rue Berthe Dubail</desc>
<link href="https://chemins.be/levaltrahegnies/sentier/78"/><trkseg>
<trkpt lat="50.413142" lon="4.218105"><time>2026-05-02T20:47:45Z</time></trkpt>
<trkpt lat="50.413054" lon="4.219510"><time>2026-05-02T20:57:45Z</time></trkpt>
</trkseg></trk>
<trk>
<name>hbhlt78</name>
<cmt>s</cmt>
<desc>Leval-Trahegnies Sentier n°78 Rue Saint-Martin / Rue Berthe Dubail</desc>
<link href="https://chemins.be/levaltrahegnies/sentier/78"/><trkseg>
<trkpt lat="50.413054" lon="4.219510"><time>2026-05-02T20:57:45Z</time></trkpt>
<trkpt lat="50.412908" lon="4.220931"><time>2026-05-02T21:07:45Z</time></trkpt>
</trkseg></trk>
<trk>
<name>hbhlt78</name>
<cmt>r</cmt>
<desc>Leval-Trahegnies Sentier n°78 Rue Saint-Martin / Rue Berthe Dubail</desc>
<link href="https://chemins.be/levaltrahegnies/sentier/78"/><trkseg>
<trkpt lat="50.412908" lon="4.220931"><time>2026-05-02T21:07:45Z</time></trkpt>
<trkpt lat="50.413081" lon="4.222155"><time>2026-05-02T21:17:45Z</time></trkpt>
</trkseg></trk>
<trk>
<name>hbhlt78</name>
<cmt>v</cmt>
<desc>Leval-Trahegnies Sentier n°78 Rue Saint-Martin / Rue Berthe Dubail</desc>
<link href="https://chemins.be/levaltrahegnies/sentier/78"/><trkseg>
<trkpt lat="50.413081" lon="4.222155"><time>2026-05-02T21:17:45Z</time></trkpt>
<trkpt lat="50.413432" lon="4.223181"><time>2026-05-02T21:27:45Z</time></trkpt>
</trkseg>
</trk>
<trk>
<name>hbhlt79</name>
<cmt>q</cmt>
<desc>Leval-Trahegnies Sentier n°79 </desc>
<link href="https://chemins.be/levaltrahegnies/sentier/79"/><trkseg>
<trkpt lat="50.413362" lon="4.217623"><time>2026-05-02T20:37:45Z</time></trkpt>
<trkpt lat="50.413434" lon="4.217215"><time>2026-05-02T20:47:45Z</time></trkpt>
<trkpt lat="50.413632" lon="4.217158"><time>2026-05-02T20:57:45Z</time></trkpt>
</trkseg>
</trk>
<trk>
<name>hbhlt80</name>
<cmt>r</cmt>
<desc>Leval-Trahegnies Sentier n°80 Rue du Béguinage / Rue Hector Trigallez / Rue Verte / Ruelle du Biskotia</desc>
<link href="https://chemins.be/levaltrahegnies/sentier/80"/><trkseg>
<trkpt lat="50.413309" lon="4.218116"><time>2026-05-02T20:37:45Z</time></trkpt>
<trkpt lat="50.412734" lon="4.218104"><time>2026-05-02T20:47:45Z</time></trkpt>
</trkseg></trk>
<trk>
<name>hbhlt80</name>
<cmt>v</cmt>
<desc>Leval-Trahegnies Sentier n°80 Rue du Béguinage / Rue Hector Trigallez / Rue Verte / Ruelle du Biskotia</desc>
<link href="https://chemins.be/levaltrahegnies/sentier/80"/><trkseg>
<trkpt lat="50.412734" lon="4.218104"><time>2026-05-02T20:47:45Z</time></trkpt>
<trkpt lat="50.412006" lon="4.217886"><time>2026-05-02T20:57:45Z</time></trkpt>
<trkpt lat="50.410890" lon="4.217295"><time>2026-05-02T21:07:45Z</time></trkpt>
<trkpt lat="50.410781" lon="4.216746"><time>2026-05-02T21:17:45Z</time></trkpt>
</trkseg></trk>
<trk>
<name>hbhlt80</name>
<cmt>r</cmt>
<desc>Leval-Trahegnies Sentier n°80 Rue du Béguinage / Rue Hector Trigallez / Rue Verte / Ruelle du Biskotia</desc>
<link href="https://chemins.be/levaltrahegnies/sentier/80"/><trkseg>
<trkpt lat="50.410781" lon="4.216746"><time>2026-05-02T21:17:45Z</time></trkpt>
<trkpt lat="50.410518" lon="4.216893"><time>2026-05-02T21:27:45Z</time></trkpt>
<trkpt lat="50.410548" lon="4.217168"><time>2026-05-02T21:37:45Z</time></trkpt>
</trkseg></trk>
<trk>
<name>hbhlt80</name>
<cmt>v</cmt>
<desc>Leval-Trahegnies Sentier n°80 Rue du Béguinage / Rue Hector Trigallez / Rue Verte / Ruelle du Biskotia</desc>
<link href="https://chemins.be/levaltrahegnies/sentier/80"/><trkseg>
<trkpt lat="50.410548" lon="4.217168"><time>2026-05-02T21:37:45Z</time></trkpt>
<trkpt lat="50.409056" lon="4.217693"><time>2026-05-02T21:47:45Z</time></trkpt>
<trkpt lat="50.408454" lon="4.217920"><time>2026-05-02T21:57:45Z</time></trkpt>
<trkpt lat="50.407897" lon="4.218063"><time>2026-05-02T22:07:45Z</time></trkpt>
<trkpt lat="50.407439" lon="4.218317"><time>2026-05-02T22:17:45Z</time></trkpt>
<trkpt lat="50.405456" lon="4.219610"><time>2026-05-02T22:27:45Z</time></trkpt>
</trkseg></trk>
<trk>
<name>hbhlt80</name>
<cmt>d</cmt>
<desc>Leval-Trahegnies Sentier n°80 Rue du Béguinage / Rue Hector Trigallez / Rue Verte / Ruelle du Biskotia</desc>
<link href="https://chemins.be/levaltrahegnies/sentier/80"/><trkseg>
<trkpt lat="50.405456" lon="4.219610"><time>2026-05-02T22:27:45Z</time></trkpt>
<trkpt lat="50.404078" lon="4.220016"><time>2026-05-02T22:37:45Z</time></trkpt>
</trkseg>
</trk>
<trk>
<name>hbhlt81</name>
<cmt>v</cmt>
<desc>Leval-Trahegnies Sentier n°81 Rue du Béguinage</desc>
<link href="https://chemins.be/levaltrahegnies/sentier/81"/><trkseg>
<trkpt lat="50.412381" lon="4.216642"><time>2026-05-02T20:37:45Z</time></trkpt>
<trkpt lat="50.412032" lon="4.217825"><time>2026-05-02T20:47:45Z</time></trkpt>
<trkpt lat="50.411952" lon="4.218542"><time>2026-05-02T20:57:45Z</time></trkpt>
</trkseg></trk>
<trk>
<name>hbhlt81</name>
<cmt>q</cmt>
<desc>Leval-Trahegnies Sentier n°81 Rue du Béguinage</desc>
<link href="https://chemins.be/levaltrahegnies/sentier/81"/><trkseg>
<trkpt lat="50.411952" lon="4.218542"><time>2026-05-02T20:57:45Z</time></trkpt>
<trkpt lat="50.410789" lon="4.222537"><time>2026-05-02T21:07:45Z</time></trkpt>
</trkseg></trk>
<trk>
<name>hbhlt81</name>
<cmt>v</cmt>
<desc>Leval-Trahegnies Sentier n°81 Rue du Béguinage</desc>
<link href="https://chemins.be/levaltrahegnies/sentier/81"/><trkseg>
<trkpt lat="50.410789" lon="4.222537"><time>2026-05-02T21:07:45Z</time></trkpt>
<trkpt lat="50.410701" lon="4.222777"><time>2026-05-02T21:17:45Z</time></trkpt>
<trkpt lat="50.410057" lon="4.222345"><time>2026-05-02T21:27:45Z</time></trkpt>
</trkseg>
</trk>
<trk>
<name>hbhlt82</name>
<cmt>s</cmt>
<desc>Leval-Trahegnies Sentier n°82 Ruelle Plats Pieds</desc>
<link href="https://chemins.be/levaltrahegnies/sentier/82"/><trkseg>
<trkpt lat="50.411870" lon="4.217881"><time>2026-05-02T20:37:45Z</time></trkpt>
<trkpt lat="50.411554" lon="4.216250"><time>2026-05-02T20:47:45Z</time></trkpt>
</trkseg></trk>
<trk>
<name>hbhlt82</name>
<cmt>v</cmt>
<desc>Leval-Trahegnies Sentier n°82 Ruelle Plats Pieds</desc>
<link href="https://chemins.be/levaltrahegnies/sentier/82"/><trkseg>
<trkpt lat="50.411554" lon="4.216250"><time>2026-05-02T20:47:45Z</time></trkpt>
<trkpt lat="50.411463" lon="4.215477"><time>2026-05-02T20:57:45Z</time></trkpt>
<trkpt lat="50.411021" lon="4.214311"><time>2026-05-02T21:07:45Z</time></trkpt>
</trkseg></trk>
<trk>
<name>hbhlt82</name>
<cmt>q</cmt>
<desc>Leval-Trahegnies Sentier n°82 Ruelle Plats Pieds</desc>
<link href="https://chemins.be/levaltrahegnies/sentier/82"/><trkseg>
<trkpt lat="50.411021" lon="4.214311"><time>2026-05-02T21:07:45Z</time></trkpt>
<trkpt lat="50.410281" lon="4.212568"><time>2026-05-02T21:17:45Z</time></trkpt>
</trkseg>
</trk>
<trk>
<name>hbhlt83</name>
<cmt>q</cmt>
<desc>Leval-Trahegnies Sentier n°83 </desc>
<link href="https://chemins.be/levaltrahegnies/sentier/83"/><trkseg>
<trkpt lat="50.412479" lon="4.216022"><time>2026-05-02T20:37:45Z</time></trkpt>
<trkpt lat="50.412416" lon="4.215797"><time>2026-05-02T20:47:45Z</time></trkpt>
<trkpt lat="50.412514" lon="4.214981"><time>2026-05-02T20:57:45Z</time></trkpt>
</trkseg>
</trk>
<trk>
<name>hbhlt84</name>
<cmt>v</cmt>
<desc>Leval-Trahegnies Sentier n°84 </desc>
<link href="https://chemins.be/levaltrahegnies/sentier/84"/><trkseg>
<trkpt lat="50.412291" lon="4.216220"><time>2026-05-02T20:37:45Z</time></trkpt>
<trkpt lat="50.412345" lon="4.216642"><time>2026-05-02T20:47:45Z</time></trkpt>
<trkpt lat="50.412750" lon="4.216655"><time>2026-05-02T20:57:45Z</time></trkpt>
</trkseg>
</trk>
<trk>
<name>hbhlt85</name>
<cmt>r</cmt>
<desc>Leval-Trahegnies Sentier n°85 Rue du Béguinage</desc>
<link href="https://chemins.be/levaltrahegnies/sentier/85"/><trkseg>
<trkpt lat="50.410649" lon="4.218884"><time>2026-05-02T20:37:45Z</time></trkpt>
<trkpt lat="50.411898" lon="4.218641"><time>2026-05-02T20:47:45Z</time></trkpt>
</trkseg>
</trk>
<trk>
<name>hbhlt86</name>
<cmt>v</cmt>
<desc>Leval-Trahegnies Sentier n°86 </desc>
<link href="https://chemins.be/levaltrahegnies/sentier/86"/><trkseg>
<trkpt lat="50.408532" lon="4.215599"><time>2026-05-02T20:37:45Z</time></trkpt>
<trkpt lat="50.408090" lon="4.214756"><time>2026-05-02T20:47:45Z</time></trkpt>
<trkpt lat="50.408018" lon="4.214771"><time>2026-05-02T20:57:45Z</time></trkpt>
<trkpt lat="50.407288" lon="4.213352"><time>2026-05-02T21:07:45Z</time></trkpt>
<trkpt lat="50.406882" lon="4.211932"><time>2026-05-02T21:17:45Z</time></trkpt>
<trkpt lat="50.407061" lon="4.211538"><time>2026-05-02T21:27:45Z</time></trkpt>
</trkseg>
</trk>
<trk>
<name>hbhlt87</name>
<cmt>v</cmt>
<desc>Leval-Trahegnies Sentier n°87 Ruelle du Biskotia</desc>
<link href="https://chemins.be/levaltrahegnies/sentier/87"/><trkseg>
<trkpt lat="50.406762" lon="4.216674"><time>2026-05-02T20:37:45Z</time></trkpt>
<trkpt lat="50.407412" lon="4.218289"><time>2026-05-02T20:47:45Z</time></trkpt>
</trkseg>
</trk>
<trk>
<name>hbhlt88</name>
<cmt>v</cmt>
<desc>Leval-Trahegnies Sentier n°88 </desc>
<link href="https://chemins.be/levaltrahegnies/sentier/88"/><trkseg>
<trkpt lat="50.408881" lon="4.221380"><time>2026-05-02T20:37:45Z</time></trkpt>
<trkpt lat="50.408333" lon="4.221339"><time>2026-05-02T20:47:45Z</time></trkpt>
</trkseg>
</trk>
<trk>
<name>hbhlt89</name>
<cmt>v</cmt>
<desc>Leval-Trahegnies Sentier n°89 </desc>
<link href="https://chemins.be/levaltrahegnies/sentier/89"/><trkseg>
<trkpt lat="50.409236" lon="4.225107"><time>2026-05-02T20:37:45Z</time></trkpt>
<trkpt lat="50.409874" lon="4.224584"><time>2026-05-02T20:47:45Z</time></trkpt>
<trkpt lat="50.409874" lon="4.224387"><time>2026-05-02T20:57:45Z</time></trkpt>
<trkpt lat="50.409927" lon="4.223754"><time>2026-05-02T21:07:45Z</time></trkpt>
</trkseg>
</trk>
<trk>
<name>hbhlt90</name>
<cmt>v</cmt>
<desc>Leval-Trahegnies Sentier n°90 Rue Alfred Meurant</desc>
<link href="https://chemins.be/levaltrahegnies/sentier/90"/><trkseg>
<trkpt lat="50.408673" lon="4.227444"><time>2026-05-02T20:37:45Z</time></trkpt>
<trkpt lat="50.410369" lon="4.226994"><time>2026-05-02T20:47:45Z</time></trkpt>
</trkseg></trk>
<trk>
<name>hbhlt90</name>
<cmt>q</cmt>
<desc>Leval-Trahegnies Sentier n°90 Rue Alfred Meurant</desc>
<link href="https://chemins.be/levaltrahegnies/sentier/90"/><trkseg>
<trkpt lat="50.410369" lon="4.226994"><time>2026-05-02T20:47:45Z</time></trkpt>
<trkpt lat="50.410694" lon="4.226637"><time>2026-05-02T20:57:45Z</time></trkpt>
<trkpt lat="50.413182" lon="4.223899"><time>2026-05-02T21:07:45Z</time></trkpt>
</trkseg>
</trk>
<trk>
<name>hbhlt91</name>
<cmt>q</cmt>
<desc>Leval-Trahegnies Sentier n°91 </desc>
<link href="https://chemins.be/levaltrahegnies/sentier/91"/><trkseg>
<trkpt lat="50.409202" lon="4.226500"><time>2026-05-02T20:37:45Z</time></trkpt>
<trkpt lat="50.409544" lon="4.226513"><time>2026-05-02T20:47:45Z</time></trkpt>
<trkpt lat="50.409876" lon="4.226230"><time>2026-05-02T20:57:45Z</time></trkpt>
</trkseg>
</trk>
<trk>
<name>hbhlt92</name>
<cmt>q</cmt>
<desc>Leval-Trahegnies Sentier n°92 </desc>
<link href="https://chemins.be/levaltrahegnies/sentier/92"/><trkseg>
<trkpt lat="50.409175" lon="4.226528"><time>2026-05-02T20:37:45Z</time></trkpt>
<trkpt lat="50.409464" lon="4.227216"><time>2026-05-02T20:47:45Z</time></trkpt>
</trkseg>
</trk>
<trk>
<name>hbhlt94</name>
<cmt>v</cmt>
<desc>Leval-Trahegnies Sentier n°94 Rue Bois des Vieilles</desc>
<link href="https://chemins.be/levaltrahegnies/sentier/94"/><trkseg>
<trkpt lat="50.397442" lon="4.233427"><time>2026-05-02T20:37:45Z</time></trkpt>
<trkpt lat="50.396752" lon="4.233422"><time>2026-05-02T20:47:45Z</time></trkpt>
<trkpt lat="50.395575" lon="4.233037"><time>2026-05-02T20:57:45Z</time></trkpt>
<trkpt lat="50.395046" lon="4.233781"><time>2026-05-02T21:07:45Z</time></trkpt>
<trkpt lat="50.393521" lon="4.234191"><time>2026-05-02T21:17:45Z</time></trkpt>
<trkpt lat="50.392146" lon="4.232837"><time>2026-05-02T21:27:45Z</time></trkpt>
<trkpt lat="50.390961" lon="4.232622"><time>2026-05-02T21:37:45Z</time></trkpt>
</trkseg>
</trk>
<trk>
<name>hbhlt95</name>
<cmt>q</cmt>
<desc>Leval-Trahegnies Sentier n°95 </desc>
<link href="https://chemins.be/levaltrahegnies/sentier/95"/><trkseg>
<trkpt lat="50.395606" lon="4.232865"><time>2026-05-02T20:37:45Z</time></trkpt>
<trkpt lat="50.394747" lon="4.237946"><time>2026-05-02T20:47:45Z</time></trkpt>
</trkseg>
</trk>
<trk>
<name>hbhlt97</name>
<cmt>q</cmt>
<desc>Leval-Trahegnies Sentier n°97 Rue de la Parapette</desc>
<link href="https://chemins.be/levaltrahegnies/sentier/97"/><trkseg>
<trkpt lat="50.396974" lon="4.238555"><time>2026-05-02T20:37:45Z</time></trkpt>
<trkpt lat="50.398366" lon="4.238880"><time>2026-05-02T20:47:45Z</time></trkpt>
</trkseg></trk>
<trk>
<name>hbhlt97</name>
<cmt>r</cmt>
<desc>Leval-Trahegnies Sentier n°97 Rue de la Parapette</desc>
<link href="https://chemins.be/levaltrahegnies/sentier/97"/><trkseg>
<trkpt lat="50.398366" lon="4.238880"><time>2026-05-02T20:47:45Z</time></trkpt>
<trkpt lat="50.398641" lon="4.239063"><time>2026-05-02T20:57:45Z</time></trkpt>
<trkpt lat="50.400345" lon="4.240302"><time>2026-05-02T21:07:45Z</time></trkpt>
</trkseg>
</trk>
<trk>
<name>hbhlti1</name>
<cmt>s</cmt>
<desc>Leval-Trahegnies Chemin n°i1 </desc>
<link href="https://chemins.be/levaltrahegnies/chemin/i1"/><trkseg>
<trkpt lat="50.406681" lon="4.216660"><time>2026-05-02T20:37:45Z</time></trkpt>
<trkpt lat="50.406413" lon="4.217322"><time>2026-05-02T20:47:45Z</time></trkpt>
<trkpt lat="50.405937" lon="4.218210"><time>2026-05-02T20:57:45Z</time></trkpt>
<trkpt lat="50.405309" lon="4.218760"><time>2026-05-02T21:07:45Z</time></trkpt>
<trkpt lat="50.405201" lon="4.218944"><time>2026-05-02T21:17:45Z</time></trkpt>
<trkpt lat="50.405471" lon="4.219618"><time>2026-05-02T21:27:45Z</time></trkpt>
<trkpt lat="50.405598" lon="4.219941"><time>2026-05-02T21:37:45Z</time></trkpt>
<trkpt lat="50.405661" lon="4.220236"><time>2026-05-02T21:47:45Z</time></trkpt>
<trkpt lat="50.405357" lon="4.221208"><time>2026-05-02T21:57:45Z</time></trkpt>
</trkseg>
</trk>
<trk>
<name>hbhlti2</name>
<cmt>q</cmt>
<desc>Leval-Trahegnies Sentier n°i2 Ruelle de Horlifagne</desc>
<link href="https://chemins.be/levaltrahegnies/sentier/i2"/><trkseg>
<trkpt lat="50.408313" lon="4.219792"><time>2026-05-02T20:37:45Z</time></trkpt>
<trkpt lat="50.407620" lon="4.219639"><time>2026-05-02T20:47:45Z</time></trkpt>
<trkpt lat="50.407422" lon="4.219541"><time>2026-05-02T20:57:45Z</time></trkpt>
<trkpt lat="50.407333" lon="4.219654"><time>2026-05-02T21:07:45Z</time></trkpt>
<trkpt lat="50.406784" lon="4.219473"><time>2026-05-02T21:17:45Z</time></trkpt>
</trkseg>
</trk>
<trk>
<name>hbhlti3</name>
<cmt>v</cmt>
<desc>Leval-Trahegnies Sentier n°i3 </desc>
<link href="https://chemins.be/levaltrahegnies/sentier/i3"/><trkseg>
<trkpt lat="50.416282" lon="4.222989"><time>2026-05-02T20:37:45Z</time></trkpt>
<trkpt lat="50.416435" lon="4.222778"><time>2026-05-02T20:47:45Z</time></trkpt>
<trkpt lat="50.416344" lon="4.222440"><time>2026-05-02T20:57:45Z</time></trkpt>
<trkpt lat="50.416829" lon="4.221974"><time>2026-05-02T21:07:45Z</time></trkpt>
</trkseg>
</trk>
<trk>
<name>hbhlti4</name>
<cmt>v</cmt>
<desc>Leval-Trahegnies Sentier n°i4 </desc>
<link href="https://chemins.be/levaltrahegnies/sentier/i4"/><trkseg>
<trkpt lat="50.427825" lon="4.208711"><time>2026-05-02T20:37:45Z</time></trkpt>
<trkpt lat="50.428798" lon="4.209974"><time>2026-05-02T20:47:45Z</time></trkpt>
<trkpt lat="50.429860" lon="4.210970"><time>2026-05-02T20:57:45Z</time></trkpt>
</trkseg>
</trk>
<trk>
<name>hbhlti5</name>
<cmt>v</cmt>
<desc>Leval-Trahegnies Chemin n°i5 </desc>
<link href="https://chemins.be/levaltrahegnies/chemin/i5"/><trkseg>
<trkpt lat="50.417969" lon="4.214510"><time>2026-05-02T20:37:45Z</time></trkpt>
<trkpt lat="50.417716" lon="4.213975"><time>2026-05-02T20:47:45Z</time></trkpt>
</trkseg></trk>
<trk>
<name>hbhlti5</name>
<cmt>q</cmt>
<desc>Leval-Trahegnies Chemin n°i5 </desc>
<link href="https://chemins.be/levaltrahegnies/chemin/i5"/><trkseg>
<trkpt lat="50.417716" lon="4.213975"><time>2026-05-02T20:47:45Z</time></trkpt>
<trkpt lat="50.417862" lon="4.213197"><time>2026-05-02T20:57:45Z</time></trkpt>
<trkpt lat="50.417799" lon="4.212763"><time>2026-05-02T21:07:45Z</time></trkpt>
<trkpt lat="50.417838" lon="4.212516"><time>2026-05-02T21:17:45Z</time></trkpt>
</trkseg>
</trk>
<trk>
<name>hbhlti6</name>
<cmt>v</cmt>
<desc>Leval-Trahegnies Chemin n°i6 </desc>
<link href="https://chemins.be/levaltrahegnies/chemin/i6"/><trkseg>
<trkpt lat="50.411299" lon="4.207571"><time>2026-05-02T20:37:45Z</time></trkpt>
<trkpt lat="50.412008" lon="4.206288"><time>2026-05-02T20:47:45Z</time></trkpt>
<trkpt lat="50.413621" lon="4.202596"><time>2026-05-02T20:57:45Z</time></trkpt>
</trkseg>
</trk>
<trk>
<name>hbhltL251</name>
<cmt>v</cmt>
<desc>Leval-Trahegnies Chemin n°L251 </desc>
<link href="https://chemins.be/levaltrahegnies/chemin/L251"/><trkseg>
<trkpt lat="50.434461" lon="4.218400"><time>2026-05-02T20:37:45Z</time></trkpt>
<trkpt lat="50.433491" lon="4.216290"><time>2026-05-02T20:47:45Z</time></trkpt>
<trkpt lat="50.433358" lon="4.215832"><time>2026-05-02T20:57:45Z</time></trkpt>
</trkseg></trk>
<trk>
<name>hbhltL251</name>
<cmt>d</cmt>
<desc>Leval-Trahegnies Chemin n°L251 </desc>
<link href="https://chemins.be/levaltrahegnies/chemin/L251"/><trkseg>
<trkpt lat="50.433358" lon="4.215832"><time>2026-05-02T20:57:45Z</time></trkpt>
<trkpt lat="50.431466" lon="4.212252"><time>2026-05-02T21:07:45Z</time></trkpt>
</trkseg>
</trk>
<trk>
<name>hbhltp1</name>
<cmt>q</cmt>
<desc>Leval-Trahegnies Sentier particulier n°p1 </desc>
<link href="https://chemins.be/levaltrahegnies/sentier/p1"/><trkseg>
<trkpt lat="50.409273" lon="4.225641"><time>2026-05-02T20:37:45Z</time></trkpt>
<trkpt lat="50.408023" lon="4.225223"><time>2026-05-02T20:47:45Z</time></trkpt>
</trkseg>
</trk>
<trk>
<name>hbhltp2</name>
<cmt>r</cmt>
<desc>Leval-Trahegnies Chemin particulier n°p2 Rue de la Courte</desc>
<link href="https://chemins.be/levaltrahegnies/chemin/p2"/><trkseg>
<trkpt lat="50.419503" lon="4.211216"><time>2026-05-02T20:37:45Z</time></trkpt>
<trkpt lat="50.419402" lon="4.209175"><time>2026-05-02T20:47:45Z</time></trkpt>
<trkpt lat="50.419444" lon="4.207346"><time>2026-05-02T20:57:45Z</time></trkpt>
</trkseg>
</trk>
</gpx>